Flight Track Log - Related Links

Times and Time Zones

All times are in EDT time to prevent confusion due to time zone crossing. See the N529LB flight status page for this flight to view local times or setup timezone preferences in your user account.

Time Position Orientation Groundspeed Altitude Reporting Facility
EDT Latitude Longitude Course Direction KTS MPH feet Rate Location/Type
Sat 08:53:00 AM 41.0949 -75.6141 159° South  Level FlightAware Approximate
Sat 08:54:00 AM 41.0541 -75.5936 159° South  Level FlightAware Approximate
Sat 08:55:00 AM 41.0132 -75.5732 159° South  Level FlightAware Approximate
Sat 08:56:00 AM 40.9723 -75.5528 159° South  Level FlightAware Approximate
Sat 08:57:00 AM 40.9307 -75.5356 163° South  Level FlightAware Approximate
Sat 08:58:00 AM 40.8889 -75.5188 163° South  Level FlightAware Approximate
Sat 08:59:00 AM 40.8471 -75.5021 163° South  Level FlightAware Approximate
Sat 09:00:00 AM 40.8053 -75.4854 163° South  Level FlightAware Approximate
Sat 09:01:00 AM 40.7635 -75.4687 163° South  Level FlightAware Approximate
Sat 09:02:00 AM 40.7217 -75.4520 163° South  Level FlightAware Approximate
Sat 09:03:00 AM 40.7080 -75.4007 103° East  Level FlightAware Approximate
Sat 09:04:00 AM 40.6981 -75.3445 103° East  Level FlightAware Approximate
Sat 09:04:45 AM 40.7667 -75.1000 105° East 201 231 4,000  Level New York TRACON
Sat 09:05:00 AM 40.6883 -75.2885 103° East  Level FlightAware Approximate
Sat 09:05:45 AM 40.7333 -75.0333 123° Southeast 185 213 4,000  Level New York TRACON
Sat 09:06:00 AM 40.6783 -75.2324 103° East  Level FlightAware Approximate
Sat 09:06:45 AM 40.7167 -74.9833 114° Southeast 181 208 4,000  Level New York TRACON
Sat 09:07:00 AM 40.6684 -75.1763 103° East  Level FlightAware Approximate
Sat 09:07:45 AM 40.7000 -74.9167 108° East 185 213 4,000  Level New York TRACON
Sat 09:08:00 AM 40.6500 -75.1256 90° East  Level FlightAware Approximate
Sat 09:08:45 AM 40.6833 -74.8500 108° East 194 223 3,100  Level New York TRACON
Sat 09:09:00 AM 40.6438 -75.0691 105° East  Level FlightAware Approximate
Sat 09:10:00 AM 40.6327 -75.0135 105° East  Level FlightAware Approximate

Login

Don't have an account? Register now (free) for customized features, flight alerts, and more!